{"data":{"norad_id":63465,"epoch":"2026-05-25T04:25:40.264320Z","epoch_age_seconds":59246,"freshness":"FRESH","line1":"1 63465U 25070F   26145.18449380  .00013341  00000+0  49326-3 0  9991","line2":"2 63465  43.0009 187.9442 0001322 259.9902 100.0801 15.27592687 64676","mean_motion":15.27592687,"eccentricity":0.0001322,"inclination_deg":43.0009,"raan_deg":187.9442,"arg_perigee_deg":259.9902,"mean_anomaly_deg":100.0801,"bstar":0.00049326,"rev_number":6467,"period_min":94.265965807154,"perigee_km":482.10406308073,"apogee_km":483.91815064018,"semimajor_km":6861.1481068605,"source":"CELESTRAK","updated_at":"2026-05-25T13:38:20.005203Z"}}